www.pogodaiklimat.ru

Погода и климат >> Архив погоды >> Канада >> Нунавут >> Кам Фор


ПОГОДА в Кам Фор

  • Прогноз погоды в Кам Фор
  • Монитор погоды в Кам Фор

АРХИВ ПОГОДЫ в Кам Фор

Время (UTC), дата Ветер
(напр.,м/с)
 
Видим.   Явления Облачность Т
(С)
Тd
(С)
f
(%)
Тe
(С)
Тes
(С)
Комфортность P
(гПа)
Po
(гПа)
Тmin
(С)
Tmax
(С)
R
(мм)
R24
(мм)
S
(см)
18 17.03 СЗ 4 н/о н/о -26.0 -36 -36 опасность
обморожения
1021.0 976.9 -30.0 -26.0
21 17.03 С 3 н/о н/о -23.4 -31 -31 опасность
обморожения
1021.3 977.4
00 18.03 С 7 н/о н/о -27.8 -41 -41 опасность
обморожения
1021.8 977.6 -29.1 -20.5
03 18.03 СЗ 6 н/о н/о -29.5 -43 -43 опасность
обморожения
1021.5 977.3
06 18.03 СЗ 5 н/о н/о -29.7 -42 -42 опасность
обморожения
1021.1 977.0 -30.0 -20.5 20
09 18.03 З 5 н/о н/о -29.1 -42 -42 опасность
обморожения
1020.1 976.2
12 18.03 СЗ 6 н/о н/о -29.6 -43 -43 опасность
обморожения
1019.4 975.2 -30.3 -20.5
15 18.03 З 5 н/о н/о -29.5 -42 -42 опасность
обморожения
1017.3 973.1
18 18.03 СЗ 6 н/о н/о -27.6 -41 -41 опасность
обморожения
1015.7 971.7 -30.3 -27.5
21 18.03 СЗ 6 н/о н/о -25.8 -38 -38 опасность
обморожения
1013.7 969.9
00 19.03 СЗ 3 н/о н/о -27.2 -36 -36 опасность
обморожения
1012.4 968.6 -30.3 -25.7
03 19.03 СВ 7 н/о н/о -29.3 -44 -44 опасность
обморожения
1011.9 968.0
06 19.03 СВ 6 н/о н/о -30.2 -44 -44 опасность
обморожения
1012.2 968.3 -30.4 -25.7 180
09 19.03 С 7 н/о н/о -31.0 -46 -46 опасность
обморожения
1013.1 969.2
12 19.03 С 6 н/о н/о -32.5 -46 -46 опасность
обморожения
1014.9 970.8 -32.5 -25.7
15 19.03 С 7 н/о н/о -30.4 -45 -45 опасность
обморожения
1016.1 971.9
18 19.03 СЗ 8 н/о н/о -29.8 -45 -45 опасность
обморожения
1016.9 972.7 -32.8 -29.8
21 19.03 СЗ 7 н/о н/о -27.2 -41 -41 опасность
обморожения
1018.2 974.0
00 20.03 З 8 н/о н/о -26.4 -41 -41 опасность
обморожения
1017.6 973.4 -32.8 -26.3
03 20.03 З 8 н/о н/о -26.7 -41 -41 опасность
обморожения
1015.2 971.2
06 20.03 З 4 н/о н/о -26.1 -36 -36 опасность
обморожения
1012.7 968.9 -32.8 -25.9 191
09 20.03 ЮЗ 5 н/о н/о -25.8 -37 -37 опасность
обморожения
1009.6 966.1
12 20.03 Ю 2 н/о н/о -23.1 -28 -28 1006.2 963.0 -26.9 -25.9
15 20.03 Ю 4 н/о н/о -22.1 -32 -32 опасность
обморожения
1002.9 959.9
18 20.03 Ю 4 н/о н/о -19.9 -29 -29 1000.7 958.0 -29.7 -19.9
21 20.03 В 5 н/о н/о -20.4 -30 -30 1000.6 957.9
00 21.03 В 7 н/о н/о -23.8 -36 -36 опасность
обморожения
1001.6 958.8 -26.7 -17.7
03 21.03 С 6 н/о н/о -24.8 -37 -37 опасность
обморожения
1003.8 960.9
06 21.03 С 5 н/о н/о -26.6 -38 -38 опасность
обморожения
1005.2 962.2 -26.7 -17.7 0
09 21.03 С 7 н/о н/о -27.2 -41 -41 опасность
обморожения
1006.7 963.6
12 21.03 СЗ 8 н/о н/о -26.7 -41 -41 опасность
обморожения
1007.7 964.4 -27.3 -17.7
15 21.03 С 12 н/о н/о -26.8 -44 -44 опасность
обморожения
1008.9 965.5
18 21.03 С 12 н/о н/о -26.5 -44 -44 опасность
обморожения
1010.8 967.2 -27.5 -26.4
21 21.03 СЗ 9 н/о н/о -26.5 -41 -41 опасность
обморожения
1013.6 969.9
00 22.03 СЗ 7 н/о н/о -26.3 -40 -40 опасность
обморожения
1014.6 970.9 -27.5 -26.0
03 22.03 З 9 н/о н/о -28.8 -44 -44 опасность
обморожения
1013.8 970.0
06 22.03 З 9 н/о н/о -27.6 -43 -43 опасность
обморожения
1012.0 968.3 -29.2 -26.0 161
09 22.03 З 9 н/о н/о -25.3 -40 -40 опасность
обморожения
1010.1 966.6
12 22.03 ЮЗ 5 н/о н/о -25.0 -36 -36 опасность
обморожения
1007.2 963.9 -29.2 -26.0
15 22.03 ЮЗ 4 н/о н/о -24.3 -34 -34 опасность
обморожения
1004.5 961.2
18 22.03 С 3 н/о н/о -22.6 -30 -30 1002.2 959.2 -29.2 -22.3
21 22.03 СВ 11 н/о н/о -24.5 -40 -40 опасность
обморожения
1001.2 958.2
00 23.03 С 10 н/о н/о -26.2 -42 -42 опасность
обморожения
1001.9 958.8 -27.7 -22.3
03 23.03 С 10 н/о н/о -28.2 -45 -45 опасность
обморожения
1002.8 959.6
06 23.03 С 15 н/о н/о -30.5 -50 -50 опасность
обморожения
1004.2 960.9 -30.5 -22.3 62
09 23.03 С 17 н/о н/о -31.3 -52 -52 опасность
обморожения
1007.8 964.2
12 23.03 С 17 н/о н/о -30.8 -52 -52 опасность
обморожения
1011.3 967.5 -31.6 -22.3
15 23.03 С 11 н/о н/о -30.8 -48 -48 опасность
обморожения
1014.8 970.7
18 23.03 СЗ 9 н/о н/о -29.1 -45 -45 опасность
обморожения
1015.9 971.8 -31.6 -29.1
21 23.03 С 10 н/о н/о -27.4 -43 -43 опасность
обморожения
1017.0 972.9
00 24.03 С 9 н/о н/о -28.7 -45 -45 опасность
обморожения
1018.2 974.0 -31.6 -27.0
03 24.03 С 12 н/о н/о -29.3 -47 -47 опасность
обморожения
1019.2 974.9
06 24.03 С 10 н/о н/о -30.2 -47 -47 опасность
обморожения
1020.4 976.1 -31.6 -27.0 103
09 24.03 С 13 н/о н/о -30.4 -49 -49 опасность
обморожения
1020.0 975.8
12 24.03 С 13 н/о н/о -30.0 -49 -49 опасность
обморожения
1019.9 975.6 -30.9 -27.0
15 24.03 С 13 н/о н/о -29.4 -48 -48 опасность
обморожения
1019.4 975.2

 

Местоположение метеостанции Кам Фор (Нунавут, Канада): широта 68.43 долгота -89.71 высота над уровнем моря 325 м.

В архиве по умолчанию представлена погода в Кам Фор за последнюю неделю. Архивные данные за месяц целиком и за предыдущие месяцы, начиная с января 2011 года, Вы можете получить, выбрав интересующий диапазон дат из раскрывающегося списка и нажав кнопку "Ввод!".


*Определитесь, кто Вы:
робот инопланетянин человек

Внимание! Время в таблицах - всемирное. Для получения местного времени необходимо прибавить поправку, которая равна -6 ч.

Смотрите также архив погоды в соседних городах и на ближайших метеорологических станциях:

Погода в Кугааруке (Нунавут, Канада) (12 км)
Погода в Шеперд-Бее (Нунавут, Канада) (157 км)
Погода в Талойоаке (Нунавут, Канада) (198 км)
Погода в Джойа Хейвен (Нунавут, Канада) (251 км)
Погода в Вейджер Бэй (Нунавут, Канада) (284 км)
Погода в Холл Бич (Нунавут, Канада) (345 км)
Погода в Глеичене (Альберта, Канада) (392 км)
Погода на Острове Хат (Нунавут, Канада) (421 км)
Погода на Острове Роули (Нунавут, Канада) (436 км)
Погода в Бейкер Лейк (Нунавут, Канада) (536 км)

Пояснения к столбцам:

Ветер - указаны скорость ветра в м/с - средняя за 10 мин, порывы в срок и между сроками (в фигурных скобках) и направление, откуда дует ветер: С - северный, СВ - северо-восточный, В - восточный, ЮВ - юго-восточный, Ю - южный, ЮЗ - юго-западный, З - западный, СЗ - северо-западный.
Видимость - горизонтальная дальность видимости в метрах или километрах. При видимости от 1 до 10 км при отсутствии осадков обычно наблюдается дымка, при ухудшении видимости до 1 км и менее - туман. В сухую погоду видимость может ухудшаться дымом, пылью или мглою.
Явления - указаны атмосферные явления, наблюдавшиеся в срок или в последний час перед сроком; фигурными скобками обозначены явления, наблюдавшиеся между сроками (за 1-3 часа до срока); квадратными скобками обозначены град или гололедные отложения с указанием их диаметра в мм.
Облачность - указаны через наклонную черту общая и нижняя облачность в баллах и высота нижней границы облаков в метрах; квадратными скобками обозначены формы облаков: Ci - перистые, Cs - перисто-слоистые, Cc - перисто-кучевые, Ac - высококучевые, As - высокослоистые, Sc - слоисто-кучевые, Ns - слоисто-дождевые, Cu - кучевые, Cb - кучево-дождевые. Подробнее классификацию облаков см. в Атласе облаков (PDF).
T - Температура воздуха - температура, измеренная на высоте 2 м над землей.
Td - Температура точки росы - температура, при понижении до которой содержащийся в воздухе водяной пар достигнет насыщения.
f - Относительная влажность воздуха - влажноcть воздуха, измеренная на высоте 2 м над землей.
Te - Эффективная температура - температура, которую ощущает одетый по сезону человек в тени. Характеристика душности погоды. При расчете учитывается влияние влажности воздуха и скорости ветра на теплоощущения человека.
Tes - Эффективная температура на солнце - температура, которую ощущает человек, с поправкой на солнечный нагрев. Характеристика знойности погоды. Зависит от высоты солнца над горизонтом, облачности и скорости ветра. Ночью, в пасмурную погоду, а также при ветре 12 м/с и более поправка равна нулю.
P - Атмосферное давление - приведенное к уровню моря атмосферное давление.
Po - Атмосферное давление - измеренное на уровне метеостанции атмосферное давление.
Tmin - Минимальная температура - минимум температуры воздуха на высоте 2 м над землей.
Tmax - Максимальная температура - максимум температуры воздуха на высоте 2 м над землей.
R - Количество осадков - Количество выпавших осадков за период времени, мм. При наведении курсора мыши на число - период времени, за который выпало указанное количество осадков.
R24 - Количество осадков - Количество выпавших осадков за 24 часа, мм.
S - Снежный покров - Высота снежного покрова, см. При наведении курсора мыши на число - состояние снежного покрова и степень покрытия местности в баллах.